[[{"header":{"parameterUnit":"m.s-1","parameterCategory":2,"la1":30.2992,"la2":30.254,"lo1":-89.0895,"lo2":-89.0443,"dy":0.0025,"dx":0.0025,"nx":19,"ny":19,"refTime":"2026-03-26T09:00:00:Z","depth":"0","parameterNumber":2,"parameterNumberName":"U-component_of_CURRENTS"},"data":[0,0,0,0.3969,0.3972,0.4067,0.4067,0.416,0.4161,0,0,0,0,0,0,0,0,0,0,0,0.3922,0.3923,0.3969,0.3972,0.4067,0.4067,0.4159,0.4161,0,0,0,0,0,0,0,0,0,0,0,0.3922,0.3923,0.3924,0.3973,0.4067,0.4067,0.4159,0.4089,0,0,0,0,0,0,0,0,0,0,0.3998,0.3956,0.3923,0.3924,0.3974,0.4067,0.4067,0.4086,0.4093,0.4116,0,0.4141,0,0.4171,0.4168,0.4169,0,0,0,0.3948,0.395,0.3995,0.3924,0.3975,0.4067,0.4017,0.409,0.4099,0.4126,0.4143,0.4147,0.4173,0.4169,0.417,0.432,0.4321,0,0,0.3943,0.3919,0.3989,0.4001,0.4014,0.4015,0.4021,0.4095,0.4099,0.4143,0.415,0.4174,0.417,0.4171,0.432,0.4321,0,0,0,0.3944,0.3915,0.3958,0.3996,0.4026,0.4018,0.4025,0.4094,0.4115,0.4151,0.4175,0.417,0.4172,0.4319,0.432,0.4503,0,0,0,0.394,0.3919,0.3955,0.3939,0.4025,0.4064,0.4022,0.4109,0.4119,0.4175,0.4171,0.4173,0.4318,0.4319,0.4496,0.4582,0,0,0,0.3915,0.3916,0.3935,0.3938,0.3994,0.4064,0.4087,0.4111,0.4135,0.4169,0.4173,0.4317,0.4319,0.449,0.4571,0.4708,0,0,0,0.3875,0.3917,0.3934,0.3986,0.3994,0.4081,0.4086,0.4141,0.4171,0.4171,0.4318,0.432,0.4488,0.4564,0.47,0.4665,0.4698,0,0,0.3908,0.3919,0.3952,0.3971,0.4066,0.4065,0.4182,0.4219,0.4209,0.4285,0.4289,0.4498,0.457,0.4706,0.4772,0.4802,0,0,0,0.395,0.3975,0.4003,0.4063,0.4123,0.4229,0.4252,0.431,0.4416,0.4243,0.4484,0.4524,0.4605,0.4566,0.459,0.4384,0.4328,0.4328,0.4328,0.3927,0.3988,0.4059,0.4151,0.4223,0.434,0.4452,0.4535,0.4492,0.4583,0.4663,0.4876,0.4835,0.4853,0.4642,0.4646,0.4647,0.4648,0.4648,0.3967,0.4025,0.4117,0.421,0.4344,0.4454,0.4678,0.4726,0.4942,0.4839,0.4909,0.4746,0.4891,0.4655,0.466,0.4658,0.4656,0.4655,0.4654,0.3938,0.3995,0.4044,0.4214,0.4391,0.4558,0.4831,0.4992,0.5094,0.5212,0.5145,0.514,0.4942,0.5241,0.5242,0.5243,0.5244,0.5245,0.5246,0.3905,0.3975,0.4087,0.4245,0.4371,0.4605,0.4953,0.5143,0.5334,0.5348,0.5347,0.4982,0.5057,0.5046,0.5261,0.5258,0.5256,0.5255,0.5254,0.3964,0.3986,0.4142,0.4256,0.4496,0.4593,0.4945,0.5239,0.547,0.5523,0.5244,0.5421,0.5364,0.534,0.5333,0.5611,0.5611,0.5611,0.5611,0.401,0.4032,0.4224,0.436,0.4511,0.4606,0.4735,0.4999,0.5215,0.5236,0.5277,0.5085,0.5079,0.4992,0.4976,0.4956,0.5132,0.5131,0.513,0.4112,0.4157,0.4271,0.4351,0.4477,0.4521,0.445,0.4488,0.4859,0.5089,0.5009,0.503,0.4718,0.4726,0.4554,0.4548,0.4501,0,0]},{"header":{"parameterUnit":"m.s-1","parameterCategory":2,"la1":30.2992,"la2":30.254,"lo1":-89.0895,"lo2":-89.0443,"dy":0.0025,"dx":0.0025,"nx":19,"ny":19,"refTime":"2026-03-26T09:00:00:Z","depth":"0","parameterNumber":3,"parameterNumberName":"V-component_of_CURRENTS"},"data":[0,0,0,0.0399,0.0399,0.0394,0.0394,0.0335,0.0335,0,0,0,0,0,0,0,0,0,0,0,0.0397,0.0397,0.0398,0.0399,0.0394,0.0394,0.0335,0.0335,0,0,0,0,0,0,0,0,0,0,0,0.0397,0.0397,0.0398,0.0399,0.0394,0.0394,0.0335,0.0349,0,0,0,0,0,0,0,0,0,0,0.0358,0.0365,0.0397,0.0398,0.0399,0.0395,0.0394,0.035,0.0348,0.0326,0,0.0335,0,0.034,0.0331,0.0331,0,0,0,0.0385,0.0367,0.0373,0.0398,0.0399,0.0395,0.0392,0.0349,0.0347,0.0324,0.0335,0.0333,0.0339,0.033,0.033,0.0393,0.0394,0,0,0.0385,0.0384,0.0375,0.0373,0.0409,0.0393,0.0393,0.0348,0.0344,0.0334,0.0332,0.0338,0.033,0.033,0.0391,0.0393,0,0,0,0.0395,0.0384,0.0393,0.0374,0.0382,0.0393,0.0393,0.0346,0.0352,0.0331,0.0337,0.033,0.0329,0.039,0.0392,0.0632,0,0,0,0.0395,0.0392,0.0393,0.0391,0.0383,0.037,0.0392,0.0355,0.035,0.0338,0.033,0.0328,0.0389,0.0391,0.0623,0.08,0,0,0,0.0395,0.0391,0.0396,0.0391,0.0397,0.0372,0.0374,0.0354,0.0354,0.033,0.0328,0.0388,0.0391,0.0615,0.0783,0.0921,0,0,0,0.0386,0.0433,0.0396,0.0452,0.0397,0.0461,0.0374,0.0396,0.0387,0.0329,0.0389,0.0392,0.0612,0.0772,0.091,0.1072,0.1135,0,0,0.045,0.044,0.0478,0.0447,0.0534,0.046,0.0567,0.0505,0.0419,0.0394,0.0396,0.0626,0.0782,0.0919,0.1225,0.1284,0,0,0,0.0503,0.054,0.0554,0.0594,0.0606,0.0687,0.0611,0.0607,0.0616,0.0428,0.0613,0.0704,0.0783,0.0856,0.0903,0.0551,0.0404,0.0404,0.0404,0.0593,0.0618,0.0715,0.0762,0.0808,0.0834,0.091,0.0892,0.0743,0.0796,0.0887,0.1149,0.1229,0.1266,0.09,0.0832,0.0833,0.0834,0.0834,0.074,0.0829,0.0872,0.0984,0.1054,0.115,0.1225,0.1184,0.1293,0.1112,0.1173,0.1092,0.1332,0.0922,0.085,0.0847,0.0845,0.0844,0.0843,0.0823,0.0889,0.0944,0.1128,0.132,0.1397,0.1682,0.1662,0.156,0.1658,0.1658,0.1654,0.1306,0.1644,0.1646,0.1647,0.1649,0.165,0.165,0.0908,0.0975,0.1132,0.1314,0.1479,0.1743,0.1975,0.2106,0.2128,0.1996,0.1994,0.1374,0.1396,0.1378,0.1672,0.1668,0.1666,0.1664,0.1662,0.1065,0.1084,0.1311,0.1472,0.186,0.2207,0.2402,0.2673,0.2709,0.2729,0.1941,0.2149,0.2098,0.2057,0.2054,0.2506,0.2505,0.2506,0.2506,0.117,0.1198,0.1506,0.1775,0.2137,0.2436,0.2952,0.312,0.2705,0.2368,0.2084,0.1854,0.1836,0.1748,0.1715,0.1693,0.2044,0.2042,0.2041,0.13,0.1376,0.1607,0.1851,0.2256,0.2696,0.3187,0.3422,0.2654,0.1971,0.1566,0.1586,0.118,0.1179,0.0971,0.0953,0.0892,0,0]}],[{"header":{"parameterUnit":"m.s-1","parameterCategory":2,"la1":30.2992,"la2":30.254,"lo1":-89.0895,"lo2":-89.0443,"dy":0.0025,"dx":0.0025,"nx":19,"ny":19,"refTime":"2026-03-26T09:00:00:Z","depth":"2","parameterNumber":2,"parameterNumberName":"U-component_of_CURRENTS"},"data":[0,0,0,0.3126,0.3128,0.3263,0.3264,0.343,0.3432,0,0,0,0,0,0,0,0,0,0,0,0.3094,0.3095,0.3126,0.3129,0.3263,0.3264,0.343,0.3432,0,0,0,0,0,0,0,0,0,0,0,0.3093,0.3094,0.3095,0.3129,0.3263,0.3264,0.343,0.3335,0,0,0,0,0,0,0,0,0,0,0.3207,0.3162,0.3094,0.3095,0.313,0.3263,0.3264,0.3331,0.3341,0.3361,0,0.3381,0,0.3395,0.3441,0.3441,0,0,0,0.3151,0.3153,0.3192,0.3096,0.313,0.3262,0.3209,0.3337,0.3348,0.3374,0.3384,0.339,0.3398,0.3442,0.3442,0.3582,0.3583,0,0,0.3143,0.3118,0.3184,0.3199,0.3165,0.3204,0.3212,0.3344,0.3354,0.3384,0.3394,0.34,0.3442,0.3443,0.3582,0.3582,0,0,0,0.3107,0.3113,0.3149,0.3192,0.3209,0.3207,0.3217,0.3349,0.3361,0.3395,0.3402,0.3443,0.3445,0.3581,0.3582,0.3695,0,0,0,0.3104,0.309,0.3146,0.3132,0.3206,0.3277,0.3218,0.3353,0.3368,0.3402,0.3443,0.3446,0.3581,0.3582,0.3691,0.3806,0,0,0,0.3088,0.3088,0.3104,0.3131,0.3178,0.3276,0.3297,0.3357,0.3371,0.3441,0.3447,0.358,0.3581,0.3687,0.3797,0.3918,0,0,0,0.3058,0.3081,0.3104,0.3152,0.3176,0.3263,0.3297,0.3368,0.3428,0.3444,0.3581,0.3582,0.3686,0.3791,0.3911,0.3725,0.374,0,0,0.3068,0.3082,0.3116,0.3139,0.32,0.3246,0.3367,0.3452,0.3455,0.3539,0.3543,0.3692,0.3796,0.3916,0.3796,0.3809,0,0,0,0.3108,0.3106,0.3136,0.3184,0.3261,0.3382,0.3441,0.3502,0.3612,0.3492,0.3686,0.3749,0.3821,0.3693,0.3704,0.3588,0.3588,0.3588,0.3587,0.305,0.311,0.3171,0.325,0.3327,0.3472,0.3597,0.369,0.3664,0.373,0.3833,0.4,0.386,0.3867,0.3788,0.3789,0.3789,0.3789,0.379,0.3082,0.3136,0.3223,0.3303,0.3447,0.3575,0.3778,0.3826,0.4041,0.3954,0.4015,0.3809,0.3886,0.3799,0.3797,0.3796,0.3795,0.3794,0.3794,0.3062,0.3103,0.317,0.3322,0.3496,0.3671,0.3896,0.4071,0.4161,0.427,0.4132,0.4126,0.412,0.4295,0.4297,0.4298,0.4298,0.4299,0.43,0.3049,0.3113,0.3181,0.3338,0.3438,0.367,0.4006,0.4147,0.4289,0.4298,0.4294,0.4173,0.4156,0.415,0.4316,0.4313,0.4311,0.4309,0.4308,0.3034,0.3037,0.3119,0.3195,0.3421,0.3505,0.3838,0.4042,0.4279,0.4276,0.4293,0.4288,0.4255,0.424,0.4235,0.4415,0.4415,0.4415,0.4415,0.2975,0.3006,0.303,0.3097,0.3238,0.3401,0.3417,0.3575,0.3887,0.3981,0.3999,0.3773,0.3779,0.3706,0.3704,0.3683,0.3719,0.3718,0.3716,0.2952,0.295,0.2918,0.297,0.3082,0.3209,0.3043,0.2974,0.3303,0.3684,0.3829,0.4378,0.4084,0.4079,0.3992,0.3978,0.3954,0,0]},{"header":{"parameterUnit":"m.s-1","parameterCategory":2,"la1":30.2992,"la2":30.254,"lo1":-89.0895,"lo2":-89.0443,"dy":0.0025,"dx":0.0025,"nx":19,"ny":19,"refTime":"2026-03-26T09:00:00:Z","depth":"2","parameterNumber":3,"parameterNumberName":"V-component_of_CURRENTS"},"data":[0,0,0,0.0192,0.0192,0.0183,0.0183,0.0134,0.0133,0,0,0,0,0,0,0,0,0,0,0,0.0195,0.0195,0.0192,0.0192,0.0183,0.0183,0.0134,0.0133,0,0,0,0,0,0,0,0,0,0,0,0.0195,0.0195,0.0196,0.0192,0.0183,0.0183,0.0134,0.0148,0,0,0,0,0,0,0,0,0,0,0.0161,0.0168,0.0195,0.0196,0.0192,0.0183,0.0183,0.0149,0.0147,0.0129,0,0.0134,0,0.0135,0.013,0.013,0,0,0,0.0185,0.017,0.0173,0.0196,0.0192,0.0183,0.0185,0.0148,0.0146,0.0126,0.0134,0.0132,0.0134,0.0129,0.0129,0.0155,0.0156,0,0,0.0185,0.0185,0.0174,0.0172,0.0198,0.0186,0.0185,0.0147,0.0144,0.0134,0.0131,0.0133,0.0129,0.0129,0.0155,0.0155,0,0,0,0.0192,0.0186,0.019,0.0173,0.0176,0.0186,0.0185,0.0146,0.0149,0.0131,0.0133,0.0129,0.0128,0.0154,0.0155,0.0284,0,0,0,0.0192,0.019,0.019,0.0189,0.0178,0.0165,0.0184,0.0152,0.0148,0.0133,0.0129,0.0128,0.0153,0.0154,0.0279,0.0404,0,0,0,0.0194,0.019,0.0193,0.0189,0.019,0.0166,0.0167,0.0151,0.0149,0.0129,0.0127,0.0153,0.0154,0.0275,0.0394,0.046,0,0,0,0.0189,0.0225,0.0193,0.0238,0.019,0.0238,0.0167,0.0182,0.0174,0.0128,0.0153,0.0155,0.0273,0.0387,0.0453,0.0484,0.0515,0,0,0.024,0.023,0.0262,0.0235,0.0303,0.0238,0.0306,0.0254,0.019,0.0159,0.016,0.0281,0.0393,0.0458,0.0577,0.0606,0,0,0,0.0283,0.0308,0.0322,0.0351,0.0361,0.039,0.0335,0.0314,0.0291,0.0193,0.0277,0.0345,0.0382,0.0386,0.0409,0.0163,0.0162,0.0162,0.0162,0.0351,0.0371,0.0444,0.0471,0.0497,0.0491,0.0512,0.0471,0.038,0.039,0.0445,0.0587,0.0592,0.061,0.0401,0.0401,0.0402,0.0402,0.0403,0.0465,0.0525,0.0549,0.0625,0.0646,0.07,0.0693,0.0644,0.0678,0.0571,0.0596,0.0517,0.0643,0.0413,0.0411,0.0409,0.0408,0.0408,0.0407,0.0527,0.0568,0.0606,0.0728,0.0833,0.0855,0.0992,0.0949,0.0839,0.0882,0.084,0.0837,0.0691,0.087,0.0871,0.0872,0.0872,0.0873,0.0873,0.0585,0.0632,0.0736,0.0853,0.096,0.1111,0.1196,0.1226,0.1162,0.1042,0.104,0.0745,0.073,0.0718,0.0887,0.0884,0.0882,0.0881,0.088,0.0683,0.0696,0.0862,0.0968,0.123,0.1466,0.1493,0.153,0.1495,0.1449,0.1101,0.1091,0.1061,0.104,0.1035,0.1276,0.1276,0.1276,0.1276,0.0743,0.0763,0.0994,0.1192,0.1443,0.1635,0.1855,0.1766,0.154,0.1345,0.1342,0.1222,0.1205,0.1174,0.115,0.1142,0.1412,0.1412,0.1412,0.0819,0.0882,0.106,0.1253,0.1542,0.184,0.204,0.1929,0.1546,0.1415,0.1335,0.1291,0.1098,0.1079,0.1008,0.0978,0.0956,0,0]}],[{"header":{"parameterUnit":"m.s-1","parameterCategory":2,"la1":30.2992,"la2":30.254,"lo1":-89.0895,"lo2":-89.0443,"dy":0.0025,"dx":0.0025,"nx":19,"ny":19,"refTime":"2026-03-26T09:00:00:Z","depth":"4","parameterNumber":2,"parameterNumberName":"U-component_of_CURRENTS"},"data":[0,0,0,0.2004,0.2008,0.222,0.2221,0.2419,0.2421,0,0,0,0,0,0,0,0,0,0,0,0.194,0.1942,0.2003,0.2009,0.222,0.2221,0.2419,0.2421,0,0,0,0,0,0,0,0,0,0,0,0.1939,0.1942,0.1944,0.2009,0.222,0.2221,0.2419,0.2278,0,0,0,0,0,0,0,0,0,0,0.2081,0.2034,0.1941,0.1944,0.2011,0.222,0.2221,0.2272,0.2286,0.2302,0,0.235,0,0.2385,0.2432,0.2433,0,0,0,0.2011,0.2022,0.2076,0.1944,0.2013,0.2219,0.2125,0.228,0.2297,0.2321,0.2353,0.2361,0.2388,0.2433,0.2434,0.2609,0.2609,0,0,0.2,0.1979,0.2065,0.2087,0.2086,0.2119,0.2132,0.2291,0.2316,0.2354,0.2366,0.2391,0.2434,0.2436,0.2608,0.2609,0,0,0,0.1964,0.197,0.2023,0.2078,0.212,0.2125,0.214,0.2309,0.2327,0.2368,0.2393,0.2435,0.2438,0.2607,0.2608,0.2674,0,0,0,0.1957,0.195,0.2018,0.2007,0.2118,0.2228,0.2154,0.2316,0.2335,0.2392,0.2436,0.2439,0.2607,0.2608,0.2671,0.2713,0,0,0,0.1927,0.1946,0.1976,0.2006,0.2095,0.2226,0.2254,0.2322,0.235,0.2433,0.244,0.2606,0.2608,0.2668,0.2708,0.2782,0,0,0,0.189,0.1926,0.1976,0.2028,0.2093,0.2209,0.2253,0.236,0.2433,0.2436,0.2607,0.2608,0.2667,0.2705,0.2779,0.2415,0,0,0,0.19,0.1927,0.1953,0.2002,0.2093,0.2179,0.2297,0.2415,0.2458,0.2548,0.2553,0.2672,0.2708,0.2782,0.2507,0,0,0,0,0.1932,0.1957,0.1993,0.2066,0.2159,0.2284,0.2393,0.2461,0.2596,0.2509,0.2684,0.2705,0.275,0.2526,0.2616,0.2615,0.2615,0.2615,0.2615,0.1908,0.1957,0.2014,0.2103,0.2196,0.2367,0.2483,0.2598,0.2626,0.2704,0.2768,0.2882,0.2646,0.2769,0.2769,0.277,0.277,0.277,0.277,0.1912,0.1928,0.2034,0.2115,0.2256,0.239,0.2595,0.2674,0.2866,0.2843,0.2883,0.262,0.2777,0.2776,0.2775,0.2774,0.2774,0.2773,0.2773,0.1867,0.1877,0.1961,0.2089,0.2253,0.2435,0.2588,0.2778,0.2927,0.3012,0.2792,0.2945,0.2932,0.3046,0.3046,0.3047,0.3047,0.3048,0.3048,0.1771,0.1845,0.1885,0.2059,0.2148,0.2333,0.2624,0.2734,0.293,0.2847,0.3055,0.2975,0.2966,0.2949,0.3056,0.3055,0.3054,0.3053,0.3052,0.1651,0.1697,0.1745,0.1814,0.2004,0.212,0.243,0.2589,0.271,0.2721,0.2751,0.2764,0.2715,0.2713,0.2684,0.2718,0.2713,0.2709,0,0.153,0.1567,0.1565,0.1604,0.1706,0.1941,0.2028,0.2224,0.2433,0.2356,0.2692,0.2717,0.2726,0.266,0.2652,0.2609,0,0,0,0.1411,0.1436,0.1373,0.144,0.1525,0.1748,0.2034,0.2031,0.2419,0.2414,0.2603,0.2631,0.2825,0.3081,0.3037,0.3026,0.2996,0,0]},{"header":{"parameterUnit":"m.s-1","parameterCategory":2,"la1":30.2992,"la2":30.254,"lo1":-89.0895,"lo2":-89.0443,"dy":0.0025,"dx":0.0025,"nx":19,"ny":19,"refTime":"2026-03-26T09:00:00:Z","depth":"4","parameterNumber":3,"parameterNumberName":"V-component_of_CURRENTS"},"data":[0,0,0,0.0143,0.0143,0.0137,0.0137,0.0095,0.0095,0,0,0,0,0,0,0,0,0,0,0,0.0145,0.0145,0.0143,0.0143,0.0137,0.0137,0.0095,0.0095,0,0,0,0,0,0,0,0,0,0,0,0.0145,0.0145,0.0145,0.0143,0.0137,0.0137,0.0095,0.0107,0,0,0,0,0,0,0,0,0,0,0.0116,0.0123,0.0145,0.0145,0.0143,0.0137,0.0137,0.0107,0.0106,0.0091,0,0.0096,0,0.0097,0.0092,0.0092,0,0,0,0.0136,0.0125,0.0126,0.0145,0.0143,0.0137,0.0138,0.0107,0.0105,0.0089,0.0095,0.0094,0.0097,0.0092,0.0092,0.0102,0.0102,0,0,0.0136,0.0137,0.0128,0.0126,0.0149,0.0138,0.0138,0.0106,0.0104,0.0095,0.0093,0.0096,0.0091,0.0091,0.0101,0.0102,0,0,0,0.0142,0.0138,0.014,0.0127,0.013,0.0138,0.0138,0.0105,0.0108,0.0093,0.0096,0.0091,0.0091,0.0101,0.0101,0.0181,0,0,0,0.0142,0.0142,0.0141,0.0141,0.0131,0.0122,0.0138,0.011,0.0107,0.0096,0.0091,0.009,0.01,0.0101,0.0178,0.0224,0,0,0,0.0144,0.0142,0.0144,0.0141,0.0142,0.0123,0.0123,0.0109,0.0108,0.0092,0.009,0.01,0.0101,0.0175,0.0219,0.0228,0,0,0,0.014,0.0168,0.0144,0.0179,0.0143,0.0179,0.0123,0.0135,0.0128,0.0091,0.01,0.0101,0.0174,0.0216,0.0225,0.0279,0,0,0,0.0179,0.0172,0.0196,0.0176,0.0228,0.0179,0.0219,0.0177,0.0136,0.0106,0.0106,0.0179,0.0219,0.0227,0.0338,0,0,0,0,0.0212,0.023,0.0242,0.0264,0.0272,0.0276,0.0239,0.0215,0.019,0.0137,0.0177,0.02,0.0203,0.0226,0.0106,0.0106,0.0106,0.0106,0.0106,0.0261,0.0276,0.0327,0.0345,0.036,0.0343,0.0338,0.0296,0.0248,0.0247,0.0263,0.0325,0.0354,0.0254,0.0254,0.0255,0.0255,0.0255,0.0255,0.0334,0.0372,0.039,0.0445,0.0447,0.0475,0.0435,0.0398,0.0376,0.0331,0.0328,0.0307,0.0263,0.0261,0.026,0.0259,0.0259,0.0258,0.0258,0.037,0.0395,0.0428,0.0509,0.0571,0.0571,0.0616,0.0551,0.0462,0.0467,0.0457,0.0372,0.0365,0.0456,0.0456,0.0456,0.0457,0.0457,0.0457,0.0393,0.043,0.0509,0.0589,0.0667,0.074,0.0732,0.0706,0.0603,0.0562,0.0489,0.0392,0.0386,0.0376,0.0461,0.046,0.046,0.046,0.0459,0.0446,0.0465,0.0591,0.0675,0.0854,0.0902,0.0897,0.0814,0.0784,0.0707,0.0592,0.0585,0.0555,0.0544,0.0538,0.0675,0.0676,0.0677,0,0.0483,0.0499,0.0682,0.0834,0.0978,0.1011,0.1019,0.0963,0.0797,0.0794,0.075,0.0624,0.0616,0.0585,0.0577,0.0573,0,0,0,0.0531,0.0589,0.0725,0.0879,0.1043,0.1052,0.1028,0.0988,0.0838,0.0793,0.0703,0.0696,0.0596,0.0473,0.0409,0.0401,0.0381,0,0]}]]